AirNav   Everest Fuels
 
 1219 users online  

91TS Songbird Ranch Airport
Rosharon, Texas, USA

GOING TO ROSHARON?


FAA INFORMATION EFFECTIVE 04 NOVEMBER 2021

Location

FAA Identifier: 91TS
Lat/Long: 29-22-02.6700N 095-20-26.0000W
29-22.044500N 095-20.433333W
29.3674083,-95.3405556
(estimated)
Elevation: 34 ft. / 10 m (estimated)
Variation: 06E (1985)
From city: 6 miles E of ROSHARON, TX
Time zone: UTC -5 (UTC -6 during Standard Time)
Zip code: 77583

Airport Operations

Airport use: Private use. Permission required prior to landing
Activation date: 06/1987
Control tower: no
ARTCC: HOUSTON CENTER
FSS: MONTGOMERY COUNTY FLIGHT SERVICE STATION
Attendance: UNATNDD
Wind indicator: yes
Segmented circle: no

Airport Communications

WX ASOS at LVJ (11 nm NE): 118.525 (281-992-1853)
WX AWOS-3 at AXH (11 nm NW): 123.625 (281-431-6572)
WX ASOS at LBX (17 nm S): 119.925 (979-849-3319)
WX ASOS at HOU (17 nm N): PHONE 713-847-1462
WX AWOS-3 at EFD (17 nm NE): 135.575 (713-847-4430)

Nearby radio navigation aids

VOR radial/distance  VOR name  Freq  Var
VUHr277/25.4SCHOLES VOR/DME113.0006E
MHFr244/32.8TRINITY VOR/DME113.6007E
IAHr175/35.4HUMBLE VORTAC116.6005E

Airport Services

Runway Information

Runway 15/33

Dimensions: 3200 x 30 ft. / 975 x 9 m
Surface: concrete
RUNWAY 15  RUNWAY 33
Traffic pattern: leftright
Obstructions: 50 ft. trees, 300 ft. from runway40 ft. pline, 150 ft. from runway

Airport Ownership and Management from official FAA records

Ownership: Privately-owned
Owner: SONGBIRD RANCH INC
16 SONGBIRD DRIVE
ROSHARON, TX 77583
Phone 281-331-0195
Manager: NEILL NORTHINGTON
16 SONGBIRD DRIVE
ROSHARON, TX 77583
Phone 281-585-5199
OTHER CONTACT RICK CARR 281-331-0195

Airport Operational Statistics

Aircraft based on the field: 18
Single engine airplanes: 16
Multi engine airplanes: 2
    

Additional Remarks

FOR CD CTC HOUSTON ARTCC AT 281-230-5622.

Instrument Procedures

There are no published instrument procedures at 91TS.

Some nearby airports with instrument procedures:

KLVJ - Pearland Regional Airport (11 nm NE)
KAXH - Houston Southwest Airport (11 nm NW)
KLBX - Texas Gulf Coast Regional Airport (17 nm S)
KHOU - William P Hobby Airport (17 nm N)
KEFD - Ellington Airport (17 nm NE)
 
Loc | Ops | Rwys | IFR | FBO | Links
Com | Nav | Svcs | Stats | Notes
Area around 91TS (Songbird Ranch Airport)
 
Road maps at: MapQuest Bing Google
 
Aerial photo
WARNING: Photo may not be current or correct
Aerial photo of 91TS (Songbird Ranch Airport)
Photo taken 11-May-2009

Do you have a better or more recent aerial photo of Songbird Ranch Airport that you would like to share? If so, please send us your photo.

 
Sectional chart

 
Airport distance calculator
Flying to Songbird Ranch Airport? Find the distance to fly.

From to 91TS

Sunrise and sunset
Times for 28-Nov-2021
 Local
(UTC-6)
 Zulu
(UTC)
Morning civil twilight06:3112:31
Sunrise06:5712:57
Sunset17:2223:22
Evening civil twilight17:4723:47

Current date and time
Zulu (UTC)  29-Nov-2021 00:35:10
Local (UTC-6)  28-Nov-2021 18:35:10
 
METAR
KLVJ 
10nm NE 
282353Z AUTO 34008KT 10SM OVC015 15/11 A3019 RMK AO2 SLP221 T01500111 10156 20139 52013
KAXH 
11nm NW 
290015Z AUTO 35005KT 10SM OVC016 14/13 A3019 RMK AO2 T01400125
KHOU 
16nm N 
282353Z 36008KT 10SM BKN015 15/11 A3017 RMK AO2 SLP221 T01500111 10161 20144 53013
KLBX 
16nm SW 
282353Z AUTO 34006KT OVC014 14/11 A3018 RMK AO2 SLP218 T01440111 10156 20144 51011
KEFD 
17nm NE 
282350Z 34008KT 10SM OVC014 14/12 A3017
TAF
KHOU 
16nm N 
282200Z 2822/2918 36007KT P6SM OVC015 FM282330 35007KT P6SM SCT030 FM290200 36003KT P6SM SKC FM291100 34001KT 5SM MIFG SKC FM291400 VRB04KT P6SM FEW250
KLBX 
16nm SW 
282200Z 2822/2918 34006KT P6SM OVC014 FM290000 35007KT P6SM SCT030 FM290300 36003KT P6SM SKC FM290900 35002KT 5SM MIFG SKC FM291400 03004KT P6SM FEW250
KEFD 
17nm NE 
282213Z 2822/3002 33006KT 9999 BKN015 QNH3013INS BECMG 2900/2901 33006KT 9999 SCT020 QNH3014INS BECMG 2902/2903 VRB06KT 9999 SKC QNH3017INS TX17/2822Z TN08/2913Z
NOTAMs
Click for the latest NOTAMs
NOTAMs are issued by the DoD/FAA and will open in a separate window not controlled by AirNav.

 

 
 

Would you like to see your business listed on this page?

 If your business provides an interesting product or service to pilots, flight crews, aircraft, or users of the Songbird Ranch Airport, you should consider listing it here.  To start the listing process, click on the button below
 
Add a business
 

Other Pages about Songbird Ranch Airport

Update a link
 
Copyright © AirNav, LLC. All rights reserved. Privacy Policy  Contact